This is the latest recevied weather packets stored in our database for station/object KJ5BMY-13. If no packets are shown the sender has not sent any weather packets the latest 1 day(s).
| Time | Temp. | Humidity | Pressure | Rain* | Wind** | Luminosity | Snow |
|---|---|---|---|---|---|---|---|
| 1778033688 | 23.33° C | 70% | 1008.7 hPa | 0 mm | - | - | - |
| 1778033385 | 23.33° C | 70% | 1008.4 hPa | 0 mm | - | - | - |
| 1778032477 | 23.33° C | 69% | 1008.4 hPa | 0 mm | - | - | - |
| 1778032174 | 23.33° C | 68% | 1008.5 hPa | 0 mm | - | - | - |
| 1778031871 | 23.89° C | 68% | 1008.5 hPa | 0 mm | - | - | - |
| 1778031567 | 23.89° C | 67% | 1007.9 hPa | 0 mm | - | - | - |
| 1778031265 | 23.89° C | 67% | 1007.7 hPa | 0 mm | - | - | - |
| 1778030961 | 23.89° C | 66% | 1008 hPa | 0 mm | - | - | - |
| 1778030658 | 23.89° C | 65% | 1007.9 hPa | 0 mm | - | - | - |
| 1778030355 | 23.89° C | 66% | 1008.2 hPa | 0 mm | - | - | - |
| 1778030052 | 24.44° C | 67% | 1007.9 hPa | 0 mm | - | - | - |
| 1778029749 | 24.44° C | 68% | 1007.6 hPa | 0 mm | - | - | - |
| 1778029448 | 24.44° C | 68% | 1007.7 hPa | 0 mm | - | - | - |
| 1778029144 | 25.56° C | 67% | 1007.7 hPa | 0 mm | - | - | - |
| 1778028841 | 25.56° C | 66% | 1007.5 hPa | 0 mm | - | - | - |
| 1778028536 | 25.56° C | 65% | 1007.7 hPa | 0 mm | - | - | - |
| 1778028235 | 26.11° C | 64% | 1007.5 hPa | 0 mm | - | - | - |
| 1778027627 | 26.67° C | 63% | 1007.2 hPa | 0 mm | - | - | - |
| 1778027020 | 27.22° C | 62% | 1007.3 hPa | 0 mm | - | - | - |
| 1778026715 | 27.22° C | 62% | 1007.5 hPa | 0 mm | - | - | - |
| 1778026413 | 27.78° C | 61% | 1007.4 hPa | 0 mm | - | - | - |
| 1778023991 | 29.44° C | 53% | 1006.5 hPa | 0 mm | - | - | - |
| 1778023688 | 30° C | 67% | 1006.4 hPa | 0 mm | - | - | - |
| 1778022478 | 30.56° C | 64% | 1005.7 hPa | 0 mm | - | - | - |
* Rain latest hour (hover to see other rain measurements)
** Current wind speed in m/s (hover to see current wind gust speed)